Location: Dentlein
(49.1477°N, 10.4231°E)
Time: 09:53:26
(UTC+00:00)

Cosmos 2333 Rocket - Pass Details

Date: 23 May 2024
Orbit: 838 x 863 km, 70.8° (Epoch: 15 June)

Event Time Altitude Azimuth Distance (km) Brightness Sun altitude
Rises 02:30:34 0° 326° (NW) 3,426 5.5 -7.8°
Reaches altitude 10° 02:33:09 10° 319° (NW) 2,490 4.7 -7.5°
Maximum altitude 02:38:24 39° 252° (WSW) 1,263 2.7 -6.9°
Drops below altitude 10° 02:43:40 10° 185° (S) 2,488 4.2 -6.2°
Sets 02:46:15 0° 178° (S) 3,423 5.0 -5.9°
